Regional Weather Roundup
Issued by NWS Little Rock, AR

Home | Current Version | Previous Version | Text Only | Print | Product List | Glossary On
Versions: 1 2 3 4 5 6 7 8 9 10 11 12 13 14 15 16 17 18 19 20 21 22 23 24 25 26 27 28 29 30 31 32 33 34 35 36 37 38 39 40 41 42 43 44 45 46
000
ASUS44 KLZK 061805
RWRLZK

WEATHER ROUNDUP FOR ARKANSAS
NATIONAL WEATHER SERVICE LITTLE ROCK AR
1200 PM CST FRI MAR 06 2015

NOTE: "FAIR" INDICATES FEW OR NO CLOUDS BELOW 12,000 FEET WITH NO
SIGNIFICANT WEATHER AND/OR OBSTRUCTIONS TO VISIBILITY.

ARZ001-003-010-029-061900-
NORTHWEST ARKANSAS

CITY           SKY/WX    TMP DP  RH WIND       PRES   REMARKS
FAYETTEVILLE   FAIR      42  25  50 SW14G20   30.49F
6HR MIN TEMP:  17; 6HR MAX TEMP:  42;

FORT SMITH     FAIR      45  24  43 W8        30.55F
6HR MIN TEMP:  22; 6HR MAX TEMP:  45;

HARRISON       FAIR      43  22  43 VRB7      30.46F
6HR MIN TEMP:  14; 6HR MAX TEMP:  43;

BENTONVILLE    FAIR      43  25  49 SW15G21   30.48F
6HR MIN TEMP:  21; 6HR MAX TEMP:  43;

ROGERS         FAIR      43  25  49 SW15      30.47F
6HR MIN TEMP:  22; 6HR MAX TEMP:  43;

SILOAM SPGS    FAIR      45  23  42 SW15G22   30.49F
6HR MIN TEMP:  23; 6HR MAX TEMP:  45;

HIGHFILL       FAIR      44  23  43 SW14G21   30.47F
6HR MIN TEMP:  21; 6HR MAX TEMP:  44;

SPRINGDALE     SUNNY     43  21  42 SW12G23   30.49F
$$

ARZ004-005-016-061900-
NORTH CENTRAL ARKANSAS

CITY           SKY/WX    TMP DP  RH WIND       PRES   REMARKS
BATESVILLE     FAIR      36  16  44 S7        30.56F
6HR MIN TEMP:   9; 6HR MAX TEMP:  36; 6HR PCP:  0.03;

FLIPPIN        FAIR      43  19  39 SW10      30.48F
6HR MIN TEMP:  10; 6HR MAX TEMP:  43; 6HR PCP:  0.05;

MTN HOME       FAIR      39  18  42 SW6       30.47F
6HR MIN TEMP:  13; 6HR MAX TEMP:  39;

$$

ARZ040-041-061900-
WEST CENTRAL ARKANSAS

CITY           SKY/WX    TMP DP  RH WIND       PRES   REMARKS
MENA           FAIR      45  21  39 W6        30.54S
MOUNT IDA      FAIR      44  20  38 S3        30.53S
6HR MIN TEMP:  17; 6HR MAX TEMP:  45;

$$

ARZ009-017-025-026-028-061900-
NORTHEAST ARKANSAS

CITY           SKY/WX    TMP DP  RH WIND       PRES   REMARKS
CORNING        FAIR      28  14  54 S8        30.59F WCI  20
JONESBORO      FAIR      25  10  53 SE9       30.60F WCI  15
6HR MIN TEMP:   5; 6HR MAX TEMP:  25;

NEWPORT        FAIR      29  14  53 S9        30.61F WCI  21
6HR MIN TEMP:  14; 6HR MAX TEMP:  29;

WALNUT RIDGE   FAIR      25  12  58 S14       30.59F WCI  13
6HR MIN TEMP:   7; 6HR MAX TEMP:  25;

BLYTHEVILLE    FAIR      24  14  65 SW5       30.61F WCI  18
6HR MIN TEMP:   3; 6HR MAX TEMP:  24;

$$

ARZ022-023-033-042-044-061900-
CENTRAL ARKANSAS

CITY           SKY/WX    TMP DP  RH WIND       PRES   REMARKS
LITTLE ROCK    FAIR      35  16  45 E6        30.60F WCI  30
6HR MIN TEMP:  17; 6HR MAX TEMP:  35;

N LITTLE ROCK  SUNNY     35  18  49 SE5       30.60F WCI  31
6HR MIN TEMP:  18; 6HR MAX TEMP:  36;

JACKSONVILLE   FAIR      35  14  43 SW1       30.58F
6HR MIN TEMP:  12; 6HR MAX TEMP:  35;

SEARCY         FAIR      34  15  46 S6        30.61F WCI  29
6HR MIN TEMP:  11; 6HR MAX TEMP:  35;

HOT SPRINGS    FAIR      40  19  43 VRB3      30.58F
6HR MIN TEMP:  16; 6HR MAX TEMP:  41;

RUSSELLVILLE   FAIR      40  19  43 N5        30.56F
6HR MIN TEMP:  20; 6HR MAX TEMP:  40;

CLINTON        FAIR      39  18  41 SW3       30.56F
$$

ARZ036-061900-
EAST ARKANSAS

CITY           SKY/WX    TMP DP  RH WIND       PRES   REMARKS
WEST MEMPHIS   FAIR      28  14  55 CALM      30.60F
6HR MIN TEMP:  10; 6HR MAX TEMP:  30;

$$

ARZ050-053-066-070-073-061900-
SOUTHWEST ARKANSAS

CITY           SKY/WX    TMP DP  RH WIND       PRES   REMARKS
ARKADELPHIA    FAIR      37  19  48 CALM      30.62F
6HR MIN TEMP:  21; 6HR MAX TEMP:  37;

CAMDEN         FAIR      43  14  31 CALM      30.61F
TEXARKANA      FAIR      43  18  36 CALM      30.60F
6HR MIN TEMP:  23; 6HR MAX TEMP:  43;

EL DORADO      FAIR      41  19  41 VRB3      30.60F
6HR MIN TEMP:  19; 6HR MAX TEMP:  41;

DE QUEEN       FAIR      44  21  40 W5        30.58F
6HR MIN TEMP:  20; 6HR MAX TEMP:  44;

$$

ARZ056-057-069-061900-
SOUTHEAST ARKANSAS

CITY           SKY/WX    TMP DP  RH WIND       PRES   REMARKS
PINE BLUFF     FAIR      32  12  43 E5        30.62F WCI  27
6HR MIN TEMP:  18; 6HR MAX TEMP:  32; 6HR PCP:  0.10;

STUTTGART      FAIR      30  14  51 SE6       30.63F WCI  24
6HR MIN TEMP:  19; 6HR MAX TEMP:  30;

MONTICELLO     FAIR      38  16  40 VRB6      30.60F
6HR MIN TEMP:  20; 6HR MAX TEMP:  38;


$$





USA.gov is the U.S. government's official web portal to all federal, state and local government web resources and services.